Regional Weather Roundup
Issued by NWS

Home | Current Version | Previous Version | Text Only | Print | Product List | Glossary Off
Versions: 1 2 3 4 5 6 7 8 9 10 11 12 13 14 15 16 17 18 19 20 21 22 23 24 25 26 27 28 29 30 31 32 33 34 35 36 37 38 39 40 41 42 43 44 45 46 47 48 49 50

000
ASUS43 KMKX 311500
RWRWI

WISCONSIN REGIONAL WEATHER ROUNDUP
NATIONAL WEATHER SERVICE MILWAUKEE/SULLIVAN WI
1000 AM CDT THU JUL 31 2014

NOTE: "FAIR" INDICATES FEW OR NO CLOUDS BELOW 12,000 FEET WITH NO
SIGNIFICANT WEATHER AND/OR OBSTRUCTIONS TO VISIBILITY.

WIZ001-002-006>008-014>016-023>028-311600-
NORTHWEST WISCONSIN

CITY           SKY/WX    TMP DP  RH WIND       PRES   REMARKS
SUPERIOR ARPT  SUNNY     69  61  77 SW3       29.98S
ASHLAND        SUNNY     72  62  71 VRB5      29.98F
HAYWARD        SUNNY     67  61  81 CALM      30.01S
SIREN          MOSUNNY   68  59  71 W7        30.02S
RICE LAKE      PTSUNNY   67  60  76 W5        30.03S
LADYSMITH      MOSUNNY   66  60  82 CALM      30.03S
EAU CLAIRE     NOT AVBL
MENOMONIE      SUNNY     73  59  62 W6        30.03S
NEW RICHMOND   MOSUNNY   69  58  68 W5        30.04S
OSCEOLA        MOSUNNY   69  60  73 W6        30.05F
$$

WIZ003>005-009-010-017-018-311600-
NORTH CENTRAL WISCONSIN

CITY           SKY/WX    TMP DP  RH WIND       PRES   REMARKS
WOODRUFF       SUNNY     72  61  67 W6        30.00S
RHINELANDER    SUNNY     68  55  63 NW7       30.01S
EAGLE RIVER    SUNNY     62  62 100 NW6       29.99S
LAND O LAKES   SUNNY     67  58  74 NW5       30.00S
PHILLIPS       SUNNY     63  60  90 CALM      30.01S
TOMAHAWK       SUNNY     61  60  97 CALM      30.01S
MEDFORD        MOSUNNY   65  61  87 NW5       30.01S
MERRILL        SUNNY     64  62  91 W3        30.00S
$$

WIZ029-030-035-036-043>047-311600-
CENTRAL WISCONSIN

CITY           SKY/WX    TMP DP  RH WIND       PRES   REMARKS
WAUSAU         MOSUNNY   69  61  75 W6        29.99S
MOSINEE        SUNNY     70  63  78 W7        30.01S
MARSHFIELD     SUNNY     71  63  75 W10       30.01S
STEVENS POINT  MOSUNNY   67  59  76 W6        30.01S
WAUPACA        SUNNY     73  61  66 W7        30.00S
WAUTOMA        NOT AVBL
WISC RAPIDS    SUNNY     71  63  75 W7        30.02S
CAMP DOUGLAS   NOT AVBL
$$

WIZ011>013-019>022-031-037>040-048>050-311600-
NORTHEAST WISCONSIN

CITY           SKY/WX    TMP DP  RH WIND       PRES   REMARKS
ANTIGO         PTSUNNY   60  60  99 NW3       30.01S FOG
STURGEON BAY   SUNNY     66  57  72 SW7       29.98F
GREEN BAY      MOSUNNY   69  63  81 SW3       29.98F
MANITOWOC      NOT AVBL
APPLETON       MOSUNNY   66  63  88 W6        30.00S
CLINTONVILLE   SUNNY     68  59  73 CALM      29.99S
OSHKOSH        SUNNY     71  61  70 W7        30.00R
$$

WIZ032>034-041-042-053>061-311600-
SOUTHWEST WISCONSIN

CITY           SKY/WX    TMP DP  RH WIND       PRES   REMARKS
LA CROSSE      SUNNY     72  61  68 CALM      30.04R
SPARTA         SUNNY     68  60  74 SW3       30.04S
VIROQUA        FAIR      68  60  77 W5        30.06S
BOSCOBEL       SUNNY     73  61  65 SW6       30.05S
PRAIRIE DU CHI SUNNY     70  57  63 CALM      30.05F
PLATTEVILLE    FAIR      70  62  76 W5        30.07S
$$

WIZ056-057-062-063-064-067-068-311600-
SOUTH CENTRAL WISCONSIN

CITY           SKY/WX    TMP DP  RH WIND       PRES   REMARKS
BARABOO/DELLS  SUNNY     71  58  62 W5        30.03S
LONE ROCK      NOT AVBL
WATERTOWN      SUNNY     69  62  77 W7        30.02S
MADISON        SUNNY     74  61  63 VRB5      30.03S
MIDDLETON      FAIR      72  60  66 W7        30.04S
MONROE         SUNNY     70  59  68 W9        30.05S
JANESVILLE     SUNNY     75  59  57 W10       30.03S
$$

WIZ051-052-058>065-066-070>072-311600-
SOUTHEAST WISCONSIN

CITY           SKY/WX    TMP DP  RH WIND       PRES   REMARKS
MILWAUKEE      SUNNY     73  59  61 W8        30.01S
WAUKESHA       SUNNY     70  59  68 SW5       30.03S
MILWAUKEE/TIMM SUNNY     72  57  60 W6        30.01F
RACINE         SUNNY     73  60  63 W6        30.03S
BURLINGTON     SUNNY     70  60  69 W3        30.02S
KENOSHA        SUNNY     72  61  68 W8        30.03R
FOND DU LAC    SUNNY     71  61  70 SW6       30.01S
SHEBOYGAN      SUNNY     71  61  70 NW8       30.00S
WEST BEND      SUNNY     70  57  64 W8        30.01S
JUNEAU         SUNNY     68  59  72 W6        30.03S
$$

LSZ147-162-311600-
LAKE SUPERIOR

STATION/POSITION TIME  TEMP    WIND        PRES    WAVE
                       AIR SEA DIR/SP/G            HT/PER
                 (UTC) (F)     (DEG/KT/KT) (MB)    (FT/S)
W MID LAKE BUOY  1350   49 41  260/  6/  8 1014.5R   0
PORT WING        1400   65     230/  2/  4 1015.6S
SAXON HARBOR     1440             CALM     1015.2R
$$

LMZ867-665-643>646-311600-
LAKE MICHIGAN

STATION/POSITION TIME  TEMP    WIND        PRES    WAVE
                       AIR SEA DIR/SP/G            HT/PER
                 (UTC) (F)     (DEG/KT/KT) (MB)    (FT/S)
N MID LAKE BUOY  1250   56 52  230/  4/  6 1013.8S   1
NORTHPORT PIER   1400   63      90/  4/  4 1014.2S
SISTER BAY       1355   69     320/  7/  8   N/A
KEWAUNEE LAKESHO 1400   66     240/  2/  4 1014.5R
SHEBOYGAN LAKESH 1400   68     270/  9/ 10 1015.7S
PORT WASHINGTON  1400   72     240/  5/  9 1016.6
ATWATER BUOY     1400   67     280/  2     1017.2R
MILWAUKEE LAKESH 1400   70     260/  4/  6   N/A
S MID LAKE BUOY  1350   62 60  250/  8/  8 1016.4R   1/ 3
KENOSHA   LAKESH 1400   69     260/  6/  9 1016.3S
$$

TC  - TEMPERATURE IN CELSIUS
VSB - VISIBILITY IN STATUTE MILES
WCI - WIND CHILL INDEX
HX  - HEAT INDEX



USA.gov is the U.S. government's official web portal to all federal, state and local government web resources and services.